Location: Cockscomb
(37.8355°N, 119.3846°W)
Time: 23:46:15
(UTC+00:00)

Daily predictions for brighter satellites

Satellite Brightness Start Highest point End
(mag) Time Altitude Azimuth Time Altitude Azimuth Time Altitude Azimuth
Cosmos 1980 Rocket 2.4 12:28:36 60° SSE 12:28:36 60° SSE 12:33:07 10° SSE
Nadezhda 4 Rocket 4.2 12:27:59 10° S 12:34:14 69° E 12:40:28 10° NNE
Cosmos 2369 4.1 12:33:33 42° N 12:35:12 58° ENE 12:40:45 10° SE
Cosmos 2098 Rocket 3.7 12:37:56 67° SSW 12:37:56 67° SSW 12:42:54 10° S
CZ-3 R/B 3.8 12:32:53 33° WSW 12:39:56 43° SW 12:48:13 10° SE
COSMOS 2455 3.2 12:38:25 38° N 12:40:37 61° ENE 12:46:32 10° SE
Tiangong 0.2 12:46:33 25° E 12:46:33 25° E 12:48:03 10° ESE
Cosmos 2333 Rocket 4.1 12:53:21 10° N 12:58:10 27° ENE 13:02:56 10° ESE
Cosmos 841 Rocket 3.4 12:59:05 62° WNW 12:59:05 62° WNW 13:04:18 10° N
NOSS 2-1 (D) 3.9 13:01:37 47° N 13:02:32 61° ENE 13:07:39 10° SE
USA 59 Rocket 0.2 13:03:00 53° N 13:03:53 71° ENE 13:09:11 10° SE
Cosmos 1606 Rocket 3.4 13:04:11 41° N 13:05:41 89° W 13:10:04 10° S
Cosmos 1933 3.4 13:08:19 54° SSW 13:08:19 54° SSW 13:11:22 10° S
NOSS 2-1 (E) 3.9 13:11:15 36° N 13:12:43 60° ENE 13:17:47 10° SE
SL-24 R/B - RUBIN 2 4.5 13:15:04 31° SW 13:15:04 31° SW 13:18:17 10° S
Cosmos 1484 Rocket 4.1 13:17:29 10° NNE 13:20:38 35° E 13:23:44 10° SSE
Cosmos 2322 Rocket 3.8 13:17:41 10° N 13:22:42 31° ENE 13:27:40 10° ESE
PKM 3.3 13:23:20 55° SW 13:23:20 55° SW 13:25:52 10° SSE
Cosmos 1627 Rocket 4.4 13:17:30 10° S 13:23:37 89° E 13:29:45 10° N
Cosmos 1898 Rocket 3.6 13:27:15 26° NW 13:29:57 51° WSW 13:35:01 10° S
Meteor 2-3 Rocket 3.7 13:25:11 10° SSW 13:30:50 59° WNW 13:36:28 10° N
Cosmos 1726 Rocket 3.4 13:28:08 19° NNW 13:31:08 62° W 13:35:14 10° S
NOSS 2-1 (C) 3.5 13:30:06 33° NW 13:31:54 74° WSW 13:37:13 10° SSE
IRS-1D 3.7 13:28:00 10° N 13:32:48 47° WNW 13:37:41 10° SW
Okean 1 4.4 13:30:23 10° N 13:33:45 39° E 13:37:06 10° SSE
Helios 1A Rocket 2.3 13:34:16 10° SSE 13:37:35 86° E 13:40:25 14° NNW
Cosmos 2237 4.3 13:34:50 18° NW 13:39:06 59° WSW 13:44:39 10° S
COSMOS 2406 3.7 13:34:39 12° WSW 13:39:20 34° WNW 13:44:30 10° N
NOSS 3-1 (C) 4.2 13:33:40 15° NW 13:40:24 81° WSW 13:49:40 10° SSE
Cosmos 1626 Rocket 4.3 13:39:02 10° S 13:43:20 55° E 13:47:40 10° NNE
Cosmos 2082 Rocket 3.7 13:48:00 16° NW 13:48:00 16° NW 13:50:40 10° NNW
Cosmos 1892 Rocket 4.0 13:43:28 10° SW 13:47:29 36° WNW 13:51:34 10° N
Cosmos 2026 Rocket 4.0 13:44:20 10° SSW 13:50:12 52° W 13:56:08 10° N
SL-16 R/B 2.2 13:44:39 10° NNW 13:50:21 87° WSW 13:56:01 10° SSE
Cosmos 1937 Rocket 3.8 13:48:18 15° NW 13:52:17 43° WSW 13:57:06 10° S
SL-4 R/B 4.0 13:51:54 10° N 13:52:59 11° NNE 13:54:04 10° NE
Cosmos 858 Rocket 4.5 13:48:07 10° NNW 13:53:15 63° WSW 13:58:21 10° S
COSMO-SKYMED 1 2.8 13:57:03 10° S 14:00:55 42° W 14:04:51 10° NNW
ARIANE 5 R/B 4.2 13:57:03 10° NNE 14:01:55 38° E 14:06:45 10° SSE
Cosmos-2242 2.9 13:59:04 10° NNW 14:03:15 64° W 14:07:22 10° S
IRIDIUM 104 4.4 13:58:49 10° S 14:04:01 88° E 14:09:16 10° N
BREEZE M DEB (TANK) 1.9 14:02:56 20° W 14:04:11 40° NNW 14:07:26 10° NE
OAO 2 Rocket 4.3 14:00:52 10° WSW 14:05:48 47° SSE 14:10:41 10° E
CZ-2D R/B 4.2 14:07:00 10° NNE 14:10:01 41° E 14:13:01 10° S
Cosmos 405 Rocket 2.3 14:09:48 10° SSW 14:12:59 57° W 14:16:14 10° N
Cosmos 1814 Rocket 4.1 14:07:56 10° SSW 14:13:02 56° WNW 14:18:14 10° N
IRIDIUM 114 4.3 14:07:57 10° S 14:13:09 76° W 14:18:23 10° N
Cosmos 2278 3.7 14:08:29 10° NNW 14:14:05 64° WSW 14:19:37 10° S
DMSP B5D1-3 4.5 14:09:16 10° S 14:14:20 70° WSW 14:19:27 10° NNW
Cosmos 1092 Rocket 4.5 14:10:24 10° SW 14:16:10 37° WNW 14:21:56 10° N
Cosmos 1553 Rocket 4.1 14:13:02 10° N 14:19:26 80° W 14:25:50 10° S
ATLAS CENTAUR Rocket 4.4 14:15:11 10° WSW 14:20:27 48° SSE 14:44:54 10° ESE
CBERS-1 4.1 14:16:35 10° N 14:21:36 58° WNW 14:26:33 10° SSW
Cosmos 1602 Rocket 3.8 14:17:12 10° S 14:21:37 78° E 14:26:04 10° N
Tiangong -0.5 14:18:56 10° W 14:21:38 25° SSW 14:24:20 10° SSE
IRIDIUM 103 4.4 14:17:11 10° SSW 14:22:19 61° W 14:27:30 10° N
CORIOLIS 4.2 14:17:33 10° NNE 14:22:57 88° E 14:28:22 10° SSW
ATLAS 2AS CENTAUR R/B 2.9 14:18:26 10° SSW 14:25:34 87° ESE 14:32:31 10° NNE
COSMOS 2455 4.2 14:21:51 10° WNW 14:25:57 19° WSW 14:30:02 10° SSW
Cosmos 2058 Rocket 3.9 14:22:53 10° NNW 14:26:48 31° W 14:30:39 10° SSW
MOS 1 Rocket 4.0 14:26:25 10° NNE 14:31:47 69° E 14:36:58 10° S
IGS 5A 4.1 14:29:06 10° N 14:32:37 30° WNW 14:36:08 10° SW
